Content
SEND FEEDBACK

Daily
Averages
Monthly
Summary
United States of America

FARMINGDALE, SOUTH DAKOTA


Home > North America > United States > South Dakota
Elevation: 2990 feet     Latitude: 43 59N     Longitude: 102 54W

WEATHER
 
SELECT A DAY
Number of Records: 200,374;   Date Range: 1/1/95 - 8/12/14
 
SHARE

PRINT THIS DATA

[ ← Previous Day ]
WEATHER ALMANAC - MARCH 8, 2013
[ Next Day → ]
[ °C ]   °F
Weather ElementAverageHighLow
Temperature31.2 °F42.1 °F (2:52 pm)23 °F (4:52 am)
Dewpoint24.4 °F27 °F (9:52 am)21 °F (4:52 am)
Humidity77.3 %96 % (11:52 pm)53 % (2:52 pm)
Barometer30.01 in30.16 in (6:52 am)29.84 in (11:26 pm)
Wind Speed5.7 mph11.5 mph (5:52 pm)
Weather ElementAverage
Visibility8.3 mi
Wind DirectionESE (101.5 °)

Weather ElementTotal
Precipitation---
Heating Degree Days32.5 (Base 65)
Averaged from 26 records on March 8, 2013
WEATHER CONDITIONS BREAKOUT
WIND DIRECTION BREAKOUT
WEATHER BY HOUR - MARCH 8, 2013
[ °C ]   °F
Local TimeTemperatureDewpointHumidityBarometerVisibilityWind DirectionWind SpeedGust SpeedPrecipitationEventsConditions
1:52 AM30.0 °F24.1 °F79 %30.11 in10.0 miNorth (350°)9.2 mphClear
2:52 AM30.0 °F24.1 °F79 %30.12 in10.0 miCalmClear
3:52 AM26.1 °F21.9 °F84 %30.12 in10.0 miCalmClear
4:52 AM23.0 °F21.0 °F92 %30.12 in10.0 miCalmClear
5:52 AM24.1 °F21.0 °F88 %30.14 in10.0 miENE (70°)3.5 mphClear
6:52 AM26.1 °F21.9 °F84 %30.16 in10.0 miENE (60°)3.5 mphClear
7:52 AM30.0 °F25.0 °F82 %30.16 in10.0 miSE (140°)3.5 mphClear
8:52 AM33.1 °F26.1 °F75 %30.14 in10.0 miSSE (150°)6.9 mphClear
9:52 AM36.0 °F27.0 °F70 %30.12 in10.0 miSSE (160°)8.1 mphClear
10:52 AM36.0 °F27.0 °F70 %30.09 in10.0 miSE (130°)10.4 mphClear
11:52 AM37.9 °F27.0 °F65 %30.06 in10.0 miEast (100°)8.1 mphClear
12:52 PM39.9 °F26.1 °F58 %30.01 in10.0 miESE (120°)8.1 mphClear
1:52 PM41.0 °F26.1 °F55 %29.97 in10.0 miESE (120°)9.2 mphClear
2:52 PM42.1 °F26.1 °F53 %29.96 in10.0 miESE (110°)8.1 mphClear
3:52 PM41.0 °F26.1 °F55 %29.94 in10.0 miESE (120°)10.4 mphClear
4:52 PM39.9 °F26.1 °F58 %29.94 in10.0 miESE (110°)8.1 mphPartly Cloudy
5:52 PM35.1 °F24.1 °F64 %29.96 in10.0 miESE (110°)11.5 mphClear
6:52 PM30.9 °F24.1 °F76 %29.96 in10.0 miESE (110°)5.8 mphClear
7:52 PM30.9 °F25.0 °F79 %29.96 in10.0 miCalmPartly Cloudy
8:52 PM25.0 °F21.0 °F85 %29.97 in8.0 miCalmClear
9:52 PM24.1 °F21.9 °F91 %29.96 in5.0 miENE (60°)6.9 mphPartly Cloudy
10:48 PM24.8 °F23.0 °F93 %29.85 in4.0 miEast (80°)6.9 mphMostly Cloudy
10:52 PM26.1 °F24.1 °F92 %29.94 in3.0 miEast (100°)4.6 mphMostly Cloudy
11:06 PM26.6 °F24.8 °F93 %29.85 in2.5 miNE (50°)5.8 mphOvercast
11:26 PM26.6 °F24.8 °F93 %29.84 in1.8 miNNE (30°)5.8 mphOvercast
11:52 PM25.0 °F24.1 °F96 %29.91 in1.8 miNorth (360°)4.6 mphOvercast
Hourly data recorded from KRAP, located miles away from Farmingdale, South Dakota







STORIES FROM OUR PARTNERS